Regional Weather Roundup
Issued by NWS Binghamton, NY

Home | Current Version | Previous Version | Text Only | Print | Product List | Glossary On
Versions: 1 2 3 4 5 6 7 8 9 10 11 12 13 14 15 16 17 18 19 20 21 22 23 24 25 26 27 28 29 30 31 32 33 34 35 36 37 38 39 40 41 42 43 44 45 46 47 48 49 50
000
ASUS41 KBGM 182110
RWRBGM
RWRBGM
BINGHAMTON REGIONAL WEATHER ROUNDUP
NATIONAL WEATHER SERVICE BINGHAMTON NY
400 PM EST THU DEC 18 2014

Note: "fair" indicates few or no clouds below 12,000 feet with no
significant weather and/or obstructions to visibility.

* = Station(s) that does not report precipitation, such as rain,
snow, etc, also no thunder or fog.

!NYZ009-015>018-022>025-036-037-044>046-055>057-062-182200
...CENTRAL NEW YORK...

CITY           SKY/WX    TMP DP  RH WIND       PRES   REMARKS
BINGHAMTON     CLOUDY    29  27  92 W9        29.96R FOG     WCI  20
CORTLAND       CLOUDY    32  30  93 W8        30.00R WCI  25
DANSVILLE      CLOUDY    33  26  75 W8G21     30.05R WCI  26
ELMIRA         CLOUDY    34  27  75 W12       30.01R WCI  25
ITHACA         CLOUDY    31  28  88 NW14      30.01R WCI  21
HAMILTON       CLOUDY    32  27  80 NW10G17   29.97R WCI  24
MONTICELLO     CLOUDY    30  27  86 NW14G26   29.95R WCI  20
NORWICH        CLOUDY    30  25  80 NW8       29.98R WCI  23
ONEONTA        CLOUDY    28  27  93 CALM      29.92R
PENN YAN       CLOUDY    33  26  75 W12G20    30.01R WCI  24
ROME           FLURRIES  30  28  92 W13       30.00R WCI  20
SIDNEY         CLOUDY    34  32  93 NW7       29.98S WCI  28
SYRACUSE       LGT SNOW  31  28  89 W12       30.02R FOG     WCI  22
$$

!PAZ038>040-043-044-047-048-072-182200
...NORTHEAST PENNSYLVANIA...

CITY           SKY/WX    TMP DP  RH WIND       PRES   REMARKS
HAZLETON       CLOUDY    32  27  80 W8G17     30.00S WCI  25
SCRANTON       CLOUDY    36  25  64 NW9       29.99R WCI  29
TOWANDA*       CLOUDY    36  27  69 W5        30.04R WCI  32
$$
&&
KEY
WCI = WIND CHILL INDEX
VSB = VISIBILITY
HX  = HEAT INDEX
$$


USA.gov is the U.S. government's official web portal to all federal, state and local government web resources and services.